Regional Weather Roundup
Issued by NWS

Home | Current Version | Previous Version | Text Only | Print | Product List | Glossary Off
Versions: 1 2 3 4 5 6 7 8 9 10 11 12 13 14 15 16 17 18 19 20 21 22 23 24 25 26 27 28 29 30 31 32 33 34 35 36 37 38 39 40 41 42 43 44 45 46 47 48 49 50

000
ASUS43 KDTX 290710
RWRMI
MICHIGAN HOURLY REGIONAL WEATHER ROUNDUP
NATIONAL WEATHER SERVICE DETROIT/PONTIAC MI
300 AM EDT SAT AUG 29 2015

NOTE: "FAIR" INDICATES FEW OR NO CLOUDS BELOW 12,000 FEET WITH NO
SIGNIFICANT WEATHER AND/OR OBSTRUCTION TO VISIBILITY.

MIZ047>049-052>055-059>063-066>070-074>076-081>083-290800-
SOUTHEAST LOWER MICHIGAN

CITY           SKY/WX    TMP DP  RH WIND       PRES   REMARKS
ADRIAN         CLOUDY    64  59  83 CALM      30.15F
ALMA           LGT RAIN  62  61  97 W3        30.15S
ANN ARBOR      CLOUDY    62  60  93 S3        30.14F
BAD AXE        CLOUDY    61  58  91 S5        30.13F
DETROIT CITY   CLOUDY    67  61  81 S5        30.14F
DETROIT        CLOUDY    66  63  90 S5        30.15F
FLINT          LGT RAIN  66  61  84 SW3       30.14F
GROSSE ILE     CLOUDY    70  64  83 S6        30.13F
HILLSDALE      CLOUDY    64  61  91 SE3       30.15S
HOWELL         LGT RAIN  64  62  91 CALM      30.14F

CITY           SKY/WX    TMP DP  RH WIND       PRES   REMARKS
JACKSON        CLOUDY    64  60  87 S3        30.14F
LAMBERTVILLE   CLOUDY    65  60  85 SE5       30.14F
LANSING        CLOUDY    64  62  93 CALM      30.13F
LAPEER         NOT AVBL
MASON          CLOUDY    63  59  88 CALM      30.14F
MT. CLEMENS    CLOUDY    63  60  93 N2        30.12F FOG
PONTIAC        LGT RAIN  65  62  90 S3        30.14F
PORT HOPE        N/A     63  59  87 SW6       30.11S
PORT HURON     CLOUDY    57  57 100 CALM      30.15S FOG
TRI CITIES     LGT RAIN  64  61  90 W7        30.14S
YPSILANTI      CLOUDY    67  62  84 S6        30.15F
$$
MIZ043>046-050>051-056>058-064>065-071>073-077>080-290800-
SOUTHWEST LOWER MICHIGAN

CITY           SKY/WX    TMP DP  RH WIND       PRES   REMARKS
BATTLE CREEK   MOCLDY    67  61  81 SE3       30.13F
BENTON HARBOR  CLOUDY    66  61  84 SE6       30.09F
BIG RAPIDS     CLOUDY    60  59  96 CALM      30.13F
COLDWATER      MOCLDY    64  60  85 SE3       30.13F
HOLLAND        CLOUDY    66  62  87 E6        30.11F
GRAND RAPIDS   CLOUDY    63  61  93 NE7       30.12F
KALAMAZOO      MOCLDY    66  60  81 S5        30.12F
MARSHALL       MOCLDY    62  60  92 CALM      30.12F
MUSKEGON       LGT RAIN  62  58  86 NE6       30.11F
$$
MIZ016>042-290800-
NORTHERN LOWER MICHIGAN

CITY           SKY/WX    TMP DP  RH WIND       PRES   REMARKS
ALPENA         LGT RAIN  64  59  83 SW6       30.10S
BEAVER ISLAND  DRIZZLE   64  58  82 SW20G26   30.10R
BELLAIRE       RAIN      63  60  90 S3        30.11R
CADILLAC       CLOUDY    59  57  91 SW6       30.13S
CHARLEVOIX     RAIN      64  63  96 W9        30.13R
FRANKFORT      RAIN      62  60  94 W8        30.12S
GAYLORD        LGT RAIN  61  60  97 SW8       30.11S
GRAYLING       CLOUDY    59  58  94 SW6       30.13R
HARBOR SPRINGS DRIZZLE   64  62  94 SW8       30.09R
HOUGHTON LAKE  CLOUDY    62  57  83 SW10      30.14R
MANISTEE       CLOUDY    61  55  82 SW3       30.13S
OSCODA         CLOUDY    61  60  96 SW3       30.10F
PELLSTON       LGT RAIN  65  62  90 W7        30.09R
TRAVERSE CITY  LGT RAIN  63  59  87 S7        30.09F
$$
MIZ007>008-015-290800-
EASTERN UPPER MICHIGAN

CITY           SKY/WX    TMP DP  RH WIND       PRES   REMARKS
KINROSS        CLOUDY    64  64 100 SW6       30.05S
MACKINAC ISLAN DRIZZLE   65  62  89 W15G25    30.07R
NEWBERRY       MOCLDY    64  62  93 SW9       30.06R
S. S. MARIE    RAIN      64  62  93 SW8       30.03F FOG
$$
MIZ004>006-011>014-085-290800-
CENTRAL UPPER MICHIGAN

CITY           SKY/WX    TMP DP  RH WIND       PRES   REMARKS
MANISTIQUE     RAIN      64  60  89 SW8G16    30.06F
ESCANABA       CLOUDY    63  57  82 SW13      30.06F
MENOMINEE      CLOUDY    61  54  77 SW6       30.10S
SAWYER-GWINN   PTCLDY    63  59  89 W10       30.05S
$$
MIZ001>003-009>011-084-290800-
WESTERN UPPER MICHIGAN

CITY           SKY/WX    TMP DP  RH WIND       PRES   REMARKS
IRON MOUNTAIN  CLOUDY    63  58  83 SW10      30.07F
HOUGHTON       CLOUDY    64  60  87 W17       30.01R
COPPER HARBOR    N/A     67  60  78 VRB5      29.96S
IRONWOOD       PTCLDY    63  54  72 SW6       30.03R
$$

ABBREVIATIONS USED IN REMARKS
   TC - TEMPERATURE IN CELSIUS
  WCI - WIND CHILL INDEX
   HX - HEAT INDEX
  VSB - VISIBILITY



USA.gov is the U.S. government's official web portal to all federal, state and local government web resources and services.